Location: Casteau
(50.5142°N, 4.0161°E)
Time: 21:04:27
(UTC+00:00)

Transit 2A - Pass Details

Date: 02 August 2021
Orbit: 594 x 964 km, 66.7° (Epoch: 26 September)

Event Time Altitude Azimuth Distance (km) Brightness Sun altitude
Rises 06:21:24 0° 220° (SW) 2,845 8.5 18.5°
Reaches altitude 10° 06:23:35 10° 222° (SW) 1,968 7.8 18.8°
Maximum altitude 06:27:59 77° 308° (NW) 665 5.9 19.5°
Drops below altitude 10° 06:32:48 10° 35° (NE) 2,142 9.0 20.3°
Sets 06:35:15 0° 37° (NE) 3,121 9.8 20.6°
